sat.trackr.live / text

‹ back to catalog

QIANFAN-17

NORAD 60395 · 2024-140S

PAYLOAD ACTIVE UNKNOWN

§ Identity

Operator
Country
PRC
Launch date
2024-08-06
Launch site
TAISC
Launch vehicle
Mass (kg)
RCS (m²)

External: N2YO · Heavens-Above · Gunter

§ Orbital elements

Epoch: 2026-09-22T20:08:40.136352Z

Period
106.59 min
Inclination
88.9675°
Eccentricity
0.0017066
Mean motion
13.51021696 rev/d
Perigee alt
1,055.8 km
Apogee alt
1,081.2 km
Semi-major
7,446.6 km
B*
2.8102e-5
RAAN
269.9698°
Arg perigee
103.4441°
Mean anomaly
256.8614°
Rev number
10,649

§ Raw data

QIANFAN-171 60395U 24140S   26265.83935343  .00000030  00000+0  28102-4 0  99922 60395  88.9675 269.9698 0017066 103.4441 256.8614 13.51021696106490

JSON: /api/v1/satellites/60395 · /tle

For live sub-satellite position, see the globe view (requires WebGL).

§ Visibility from observer

Set your observer location to see the next 7 days of passes ≥ 10°. The values pass through the URL so the page stays shareable.

No JS? Fill the form by hand. The geolocation button needs JavaScript.